Flag for West Bank Weather past 2 weeks in Hebron, West Bank

Now
90 °F

Passing clouds.


Feels Like: 93 °F
Forecast: 65 / 80 °F
Wind: 10 mph from Northwest

Location: Ben Gurion International Airport

Current Time: Aug 29, 2015 at 12:30:19 PM

Latest Report: Aug 29, 2015 at 11:50 AM


Visibility: N/A

Pressure: 29.86 "Hg (27.02 "Hg at 894m altitude)

Humidity: 49%

Dew point: 68 °F

Location of HebronLocation

Historic Weather in Hebron — Graph

°F

Hebron temperature yesterday

Maximum temperature yesterday: 90 °F (at 12:20 PM)
Minimum temperature yesterday: 77 °F (at 4:20 AM)
Average temperature yesterday: 84 °F

Past Weeks' High & Low Weather Summary

 TemperatureHumidityPressure
High100 °F (Aug 16, 2:20 PM)84% (Aug 15, 1:50 AM)29.89 "Hg (Aug 15, 1:50 AM)
Low75 °F (Aug 26, 4:20 AM)40% (Aug 16, 8:50 AM)29.71 "Hg (Aug 16, 2:20 PM)
Average84 °F65%29.79 "Hg
* Reported Aug 14 10:20 AM — Aug 29 10:50 AM, Hebron, Weather by CustomWeather, © 2015

Note: Actual official high and low records may vary slightly from our data, if they occured in-between our weather recording intervals... More about our weather records

Advertising

Hebron weather history for previous 24 hours

 ConditionsComfort  
Time TempWeatherWind HumidityBarometerVisibility
10:50 AM
Sat, Aug 29
88 °FPassing clouds.7 mph49%29.89 "HgN/A
10:20 AM88 °FPassing clouds.5 mph52%29.89 "HgN/A
9:50 AM86 °FPassing clouds.5 mph59%29.89 "HgN/A
8:50 AM82 °FSunny.1 mph70%29.89 "Hg10 mi
8:20 AM81 °FSunny.5 mph74%29.89 "Hg10 mi
7:50 AM79 °FSunny.5 mph74%29.89 "Hg10 mi
7:20 AM77 °FSunny.3 mph79%29.89 "Hg10 mi
6:50 AM75 °FPassing clouds.5 mph83%29.86 "HgN/A
5:50 AM75 °FClear.2 mph78%29.86 "Hg10 mi
5:20 AM75 °FClear.2 mph83%29.86 "Hg10 mi
4:50 AM75 °FPassing clouds.3 mph78%29.86 "HgN/A
4:20 AM77 °FPassing clouds.3 mph79%29.86 "HgN/A
3:50 AM77 °FPassing clouds.3 mph79%29.86 "HgN/A
3:20 AM77 °FPassing clouds.3 mph79%29.86 "HgN/A
2:50 AM77 °FPassing clouds.3 mph79%29.86 "HgN/A
2:20 AM79 °FPassing clouds.1 mph74%29.89 "HgN/A
1:50 AM79 °FPassing clouds.3 mph74%29.89 "HgN/A
1:20 AM79 °FPassing clouds.3 mph74%29.89 "HgN/A
12:50 AM81 °FPassing clouds.3 mph70%29.89 "HgN/A
12:20 AM82 °FPassing clouds.2 mph70%29.89 "HgN/A
11:50 PM
Fri, Aug 28
82 °FPassing clouds.3 mph70%29.89 "HgN/A
11:20 PM82 °FClear.3 mph70%29.89 "Hg10 mi
10:50 PM82 °FPassing clouds.3 mph70%29.89 "HgN/A
10:20 PM82 °FPassing clouds.3 mph70%29.89 "HgN/A
9:50 PM82 °FClear.5 mph70%29.89 "Hg10 mi
9:20 PM82 °FClear.3 mph70%29.89 "Hg10 mi
8:50 PM82 °FClear.6 mph70%29.89 "Hg10 mi
8:20 PM84 °FClear.6 mph66%29.89 "Hg10 mi
7:50 PM84 °FSunny.7 mph66%29.89 "Hg10 mi
7:20 PM84 °FSunny.7 mph66%29.86 "Hg10 mi
6:50 PM86 °FSunny.10 mph59%29.86 "Hg10 mi
6:20 PM86 °FSunny.9 mph59%29.86 "Hg10 mi
5:50 PM88 °FSunny.10 mph55%29.86 "Hg10 mi
5:20 PM88 °FSunny.13 mph55%29.86 "Hg10 mi
4:50 PM90 °FSunny.14 mph52%29.86 "Hg10 mi
4:20 PM90 °FSunny.14 mph49%29.86 "Hg10 mi
3:50 PM90 °FPassing clouds.13 mph46%29.86 "HgN/A
3:20 PM90 °FPassing clouds.12 mph49%29.86 "HgN/A
2:50 PM90 °FPassing clouds.12 mph52%29.86 "HgN/A
2:20 PM90 °FPassing clouds.13 mph52%29.89 "HgN/A
1:50 PM90 °FPassing clouds.14 mph52%29.89 "HgN/A
1:20 PM90 °FPassing clouds.13 mph49%29.89 "HgN/A
12:50 PM90 °FPassing clouds.10 mph49%29.89 "HgN/A
12:20 PM90 °FPassing clouds.10 mph52%29.89 "HgN/A
Weather by CustomWeather, © 2015

See weather overviewHow to use our weather pages